TAM3975 SBRJ-SBGR

Flight info

Callsign TAM3975
Flight time 0h 48m
Altitude 30000
Route ESORU UZ10 EDMUS
Aircraft A319/M-SDE3FGHIRWY/LB1

Departure

Time 2026-05-06 20:57
Airport Santos Dumont Airport (SBRJ)

Arrival

Time 2026-05-06 21:45
Airport São Paulo/Guarulhos–Governor André Franco Montoro International Airport (SBGR)
Time Latitude Longitude Altitude Speed Heading
2026-05-06 20:38 -22.91097 -43.16588 30 ft 0 kts 268°
2026-05-06 20:49 -22.91097 -43.16578 30 ft 4 kts 270°
2026-05-06 20:49 -22.91100 -43.16549 30 ft 4 kts 288°
2026-05-06 20:49 -22.91112 -43.16526 30 ft 4 kts 329°
2026-05-06 20:50 -22.91120 -43.16521 30 ft 0 kts 345°
2026-05-06 20:53 -22.91118 -43.16522 30 ft 3 kts 345°
2026-05-06 20:53 -22.91051 -43.16537 30 ft 11 kts 352°
2026-05-06 20:53 -22.90975 -43.16544 30 ft 13 kts 356°
2026-05-06 20:54 -22.90876 -43.16549 30 ft 14 kts 357°
2026-05-06 20:54 -22.90781 -43.16543 30 ft 13 kts
2026-05-06 20:54 -22.90697 -43.16546 30 ft 11 kts 356°
2026-05-06 20:54 -22.90607 -43.16553 30 ft 14 kts 355°
2026-05-06 20:55 -22.90513 -43.16554 30 ft 12 kts 20°
2026-05-06 20:55 -22.90497 -43.16509 30 ft 3 kts 86°
2026-05-06 20:55 -22.90493 -43.16441 29 ft 12 kts 86°
2026-05-06 20:55 -22.90482 -43.16355 27 ft 10 kts 58°
2026-05-06 20:56 -22.90466 -43.16313 28 ft 5 kts 140°
2026-05-06 20:56 -22.90480 -43.16312 28 ft 0 kts 182°
2026-05-06 20:56 -22.90667 -43.16313 29 ft 71 kts 177°
2026-05-06 20:57 -22.91446 -43.16261 41 ft 147 kts 176°
2026-05-06 20:57 -22.92469 -43.16146 841 ft 147 kts 158°
2026-05-06 20:57 -22.93277 -43.15415 1640 ft 157 kts 137°
2026-05-06 20:57 -22.94066 -43.14536 2364 ft 170 kts 135°
2026-05-06 20:58 -22.94922 -43.13573 2719 ft 185 kts 136°
2026-05-06 20:58 -22.95926 -43.12589 3029 ft 202 kts 138°
2026-05-06 20:58 -22.97043 -43.11547 3370 ft 220 kts 137°
2026-05-06 20:58 -22.98235 -43.10443 3966 ft 230 kts 139°
2026-05-06 20:59 -22.99701 -43.09704 4620 ft 243 kts 173°
2026-05-06 20:59 -23.01364 -43.10058 5205 ft 258 kts 207°
2026-05-06 20:59 -23.02922 -43.11155 5682 ft 277 kts 218°
2026-05-06 20:59 -23.04419 -43.12540 6435 ft 286 kts 222°
2026-05-06 21:00 -23.05898 -43.14017 7301 ft 290 kts 223°
2026-05-06 21:00 -23.07278 -43.15626 8097 ft 295 kts 239°
2026-05-06 21:00 -23.07854 -43.17745 8880 ft 297 kts 271°
2026-05-06 21:00 -23.07330 -43.19891 9612 ft 298 kts 303°
2026-05-06 21:01 -23.05852 -43.21441 10335 ft 301 kts 332°
2026-05-06 21:01 -23.03789 -43.22116 10593 ft 322 kts 355°
2026-05-06 21:01 -23.01508 -43.22295 10780 ft 345 kts 352°
2026-05-06 21:01 -22.99191 -43.23246 11158 ft 360 kts 328°
2026-05-06 21:02 -22.97257 -43.24947 11782 ft 366 kts 315°
2026-05-06 21:02 -22.95565 -43.27035 12494 ft 370 kts 309°
2026-05-06 21:02 -22.93994 -43.29259 13195 ft 373 kts 307°
2026-05-06 21:02 -22.92413 -43.31512 13865 ft 377 kts 308°
2026-05-06 21:03 -22.90767 -43.33740 14504 ft 381 kts 309°
2026-05-06 21:03 -22.89056 -43.35954 15110 ft 385 kts 310°
2026-05-06 21:03 -22.87286 -43.38166 15703 ft 390 kts 311°
2026-05-06 21:03 -22.85474 -43.40383 16281 ft 394 kts 311°
2026-05-06 21:04 -22.83640 -43.42606 16863 ft 397 kts 311°
2026-05-06 21:04 -22.81788 -43.44850 17432 ft 401 kts 311°
2026-05-06 21:04 -22.79923 -43.47114 17975 ft 405 kts 310°
2026-05-06 21:04 -22.78039 -43.49407 18501 ft 409 kts 310°
2026-05-06 21:05 -22.76169 -43.51690 19020 ft 412 kts 310°
2026-05-06 21:05 -22.74300 -43.54104 19546 ft 414 kts 304°
2026-05-06 21:05 -22.72890 -43.56766 20057 ft 414 kts 292°
2026-05-06 21:05 -22.71986 -43.59733 20569 ft 415 kts 281°
2026-05-06 21:06 -22.71653 -43.62835 21050 ft 416 kts 269°
2026-05-06 21:06 -22.71880 -43.65960 21528 ft 417 kts 261°
2026-05-06 21:06 -22.72299 -43.69075 22006 ft 419 kts 261°
2026-05-06 21:06 -22.72722 -43.72204 22462 ft 421 kts 261°
2026-05-06 21:07 -22.73148 -43.75357 22918 ft 424 kts 261°
2026-05-06 21:07 -22.73794 -43.78471 23343 ft 425 kts 252°
2026-05-06 21:07 -22.74788 -43.81500 23768 ft 427 kts 250°
2026-05-06 21:07 -22.75801 -43.84536 24186 ft 429 kts 250°
2026-05-06 21:08 -22.76816 -43.87586 24575 ft 432 kts 250°
2026-05-06 21:08 -22.77833 -43.90652 24979 ft 433 kts 250°
2026-05-06 21:08 -22.78855 -43.93735 25360 ft 436 kts 250°
2026-05-06 21:08 -22.79880 -43.96825 25760 ft 437 kts 250°
2026-05-06 21:09 -22.80909 -43.99938 26150 ft 439 kts 250°
2026-05-06 21:09 -22.81941 -44.03065 26542 ft 441 kts 249°
2026-05-06 21:09 -22.82976 -44.06201 26928 ft 442 kts 249°
2026-05-06 21:09 -22.84011 -44.09346 27291 ft 444 kts 249°
2026-05-06 21:10 -22.85047 -44.12504 27619 ft 446 kts 249°
2026-05-06 21:10 -22.86085 -44.15677 27947 ft 447 kts 249°
2026-05-06 21:10 -22.87130 -44.18863 28284 ft 449 kts 249°
2026-05-06 21:10 -22.88179 -44.22056 28598 ft 450 kts 248°
2026-05-06 21:11 -22.89219 -44.25219 28897 ft 452 kts 248°
2026-05-06 21:11 -22.90276 -44.28433 29206 ft 453 kts 248°
2026-05-06 21:11 -22.91333 -44.31654 29524 ft 453 kts 248°
2026-05-06 21:11 -22.92390 -44.34873 29932 ft 452 kts 248°
2026-05-06 21:12 -22.93446 -44.38085 30090 ft 451 kts 248°
2026-05-06 21:12 -22.95522 -44.44440 30128 ft 444 kts 248°
2026-05-06 21:13 -22.97582 -44.50758 30138 ft 443 kts 248°
2026-05-06 21:13 -22.99642 -44.57060 30140 ft 443 kts 248°
2026-05-06 21:14 -23.01344 -44.62294 30146 ft 442 kts 248°
2026-05-06 21:14 -23.03551 -44.69721 30142 ft 444 kts 253°
2026-05-06 21:15 -23.05015 -44.76234 30141 ft 444 kts 253°
2026-05-06 21:15 -23.06481 -44.82733 30143 ft 443 kts 253°
2026-05-06 21:16 -23.07700 -44.88139 30143 ft 443 kts 253°
2026-05-06 21:16 -23.09399 -44.95696 30145 ft 443 kts 253°
2026-05-06 21:17 -23.10613 -45.01148 30147 ft 443 kts 253°
2026-05-06 21:17 -23.12064 -45.07661 30148 ft 444 kts 253°
2026-05-06 21:18 -23.13512 -45.14146 30151 ft 444 kts 253°
2026-05-06 21:18 -23.14965 -45.20676 30150 ft 444 kts 253°
2026-05-06 21:19 -23.16402 -45.27153 29100 ft 446 kts 253°
2026-05-06 21:19 -23.17136 -45.30462 27905 ft 452 kts 253°
2026-05-06 21:19 -23.17876 -45.33801 26874 ft 455 kts 254°
2026-05-06 21:19 -23.18611 -45.37129 26111 ft 451 kts 254°
2026-05-06 21:20 -23.19337 -45.40431 25312 ft 447 kts 255°
2026-05-06 21:20 -23.20058 -45.43702 24531 ft 443 kts 255°
2026-05-06 21:20 -23.20774 -45.46946 23764 ft 440 kts 255°
2026-05-06 21:20 -23.21488 -45.50173 23036 ft 436 kts 255°
2026-05-06 21:21 -23.22196 -45.53368 22337 ft 433 kts 255°
2026-05-06 21:21 -23.22910 -45.56532 21647 ft 429 kts 254°
2026-05-06 21:21 -23.23697 -45.59646 20991 ft 425 kts 252°
2026-05-06 21:21 -23.24542 -45.62706 20358 ft 420 kts 251°
2026-05-06 21:22 -23.25415 -45.65725 19753 ft 416 kts 251°
2026-05-06 21:22 -23.26281 -45.68704 19170 ft 411 kts 251°
2026-05-06 21:22 -23.27126 -45.71656 18620 ft 406 kts 251°
2026-05-06 21:22 -23.27948 -45.74576 18079 ft 402 kts 251°
2026-05-06 21:23 -23.28749 -45.77473 17559 ft 397 kts 252°
2026-05-06 21:23 -23.29528 -45.80337 17051 ft 393 kts 252°
2026-05-06 21:23 -23.30299 -45.83173 16550 ft 389 kts 252°
2026-05-06 21:23 -23.31065 -45.85980 16049 ft 385 kts 252°
2026-05-06 21:24 -23.31828 -45.88759 15531 ft 382 kts 252°
2026-05-06 21:24 -23.32576 -45.91480 15058 ft 380 kts 252°
2026-05-06 21:24 -23.33360 -45.94286 14931 ft 391 kts 252°
2026-05-06 21:24 -23.34166 -45.97133 14744 ft 394 kts 252°
2026-05-06 21:25 -23.34978 -45.99972 14546 ft 393 kts 252°
2026-05-06 21:25 -23.35797 -46.02825 14344 ft 392 kts 252°
2026-05-06 21:25 -23.36600 -46.05644 14160 ft 391 kts 252°
2026-05-06 21:25 -23.37399 -46.08471 13970 ft 391 kts 252°
2026-05-06 21:26 -23.38197 -46.11297 13771 ft 390 kts 252°
2026-05-06 21:26 -23.38993 -46.14113 13583 ft 389 kts 252°
2026-05-06 21:26 -23.39783 -46.16921 13385 ft 388 kts 252°
2026-05-06 21:26 -23.40570 -46.19720 13203 ft 387 kts 252°
2026-05-06 21:27 -23.41360 -46.22516 13005 ft 386 kts 252°
2026-05-06 21:27 -23.42138 -46.25305 12814 ft 385 kts 255°
2026-05-06 21:27 -23.42540 -46.28181 12626 ft 384 kts 268°
2026-05-06 21:27 -23.42309 -46.31069 12430 ft 383 kts 282°
2026-05-06 21:28 -23.41489 -46.33780 12239 ft 382 kts 295°
2026-05-06 21:28 -23.40152 -46.36267 12049 ft 381 kts 303°
2026-05-06 21:28 -23.38701 -46.38673 11860 ft 380 kts 304°
2026-05-06 21:28 -23.37249 -46.41071 11671 ft 379 kts 304°
2026-05-06 21:29 -23.35807 -46.43450 11487 ft 372 kts 304°
2026-05-06 21:29 -23.34416 -46.45750 11350 ft 355 kts 303°
2026-05-06 21:29 -23.33084 -46.47952 11193 ft 342 kts 304°
2026-05-06 21:29 -23.31795 -46.50089 10941 ft 333 kts 304°
2026-05-06 21:30 -23.30546 -46.52165 10766 ft 322 kts 304°
2026-05-06 21:30 -23.29333 -46.54181 10601 ft 312 kts 304°
2026-05-06 21:30 -23.28170 -46.56099 10442 ft 303 kts 304°
2026-05-06 21:30 -23.27027 -46.57985 10284 ft 294 kts 303°
2026-05-06 21:31 -23.26130 -46.59946 10118 ft 286 kts 290°
2026-05-06 21:31 -23.25505 -46.61978 9903 ft 280 kts 289°
2026-05-06 21:31 -23.24889 -46.63964 9704 ft 274 kts 289°
2026-05-06 21:31 -23.24289 -46.65908 9517 ft 267 kts 289°
2026-05-06 21:32 -23.23752 -46.67807 9358 ft 260 kts 282°
2026-05-06 21:32 -23.23753 -46.71641 8964 ft 250 kts 258°
2026-05-06 21:32 -23.24101 -46.73472 8778 ft 245 kts 259°
2026-05-06 21:33 -23.24432 -46.75270 8600 ft 240 kts 259°
2026-05-06 21:33 -23.24754 -46.77026 8433 ft 235 kts 259°
2026-05-06 21:33 -23.25148 -46.78726 8274 ft 230 kts 250°
2026-05-06 21:33 -23.25824 -46.80277 8066 ft 227 kts 238°
2026-05-06 21:34 -23.26759 -46.81639 7767 ft 222 kts 227°
2026-05-06 21:34 -23.27771 -46.82869 7533 ft 214 kts 228°
2026-05-06 21:34 -23.28844 -46.83927 7343 ft 204 kts 212°
2026-05-06 21:34 -23.30091 -46.84564 7177 ft 194 kts 195°
2026-05-06 21:35 -23.31396 -46.84787 7008 ft 186 kts 178°
2026-05-06 21:35 -23.32646 -46.84627 6926 ft 175 kts 163°
2026-05-06 21:35 -23.33715 -46.84175 6856 ft 159 kts 149°
2026-05-06 21:35 -23.34597 -46.83508 6785 ft 154 kts 136°
2026-05-06 21:36 -23.35314 -46.82649 6726 ft 153 kts 123°
2026-05-06 21:36 -23.35906 -46.81680 6676 ft 152 kts 121°
2026-05-06 21:36 -23.36485 -46.80729 6615 ft 152 kts 121°
2026-05-06 21:36 -23.37075 -46.79761 6559 ft 152 kts 121°
2026-05-06 21:37 -23.37652 -46.78810 6503 ft 152 kts 121°
2026-05-06 21:37 -23.38241 -46.77843 6438 ft 151 kts 121°
2026-05-06 21:37 -23.38812 -46.76901 6387 ft 151 kts 121°
2026-05-06 21:37 -23.39396 -46.75939 6326 ft 151 kts 121°
2026-05-06 21:38 -23.39971 -46.74992 6263 ft 151 kts 121°
2026-05-06 21:38 -23.40546 -46.74042 6201 ft 151 kts 121°
2026-05-06 21:38 -23.41122 -46.73088 6143 ft 150 kts 121°
2026-05-06 21:38 -23.41697 -46.72137 6078 ft 149 kts 121°
2026-05-06 21:39 -23.42270 -46.71193 6026 ft 150 kts 121°
2026-05-06 21:39 -23.42848 -46.70245 5974 ft 151 kts 121°
2026-05-06 21:39 -23.43439 -46.69296 5748 ft 151 kts 122°
2026-05-06 21:39 -23.44032 -46.68355 5515 ft 150 kts 122°
2026-05-06 21:40 -23.44619 -46.67422 5294 ft 149 kts 122°
2026-05-06 21:40 -23.45204 -46.66491 5072 ft 149 kts 122°
2026-05-06 21:40 -23.45779 -46.65574 4952 ft 148 kts 122°
2026-05-06 21:40 -23.46365 -46.64641 4844 ft 148 kts 122°
2026-05-06 21:41 -23.46933 -46.63715 4725 ft 148 kts 117°
2026-05-06 21:41 -23.47281 -46.62673 4627 ft 146 kts 99°
2026-05-06 21:41 -23.47312 -46.61571 4517 ft 145 kts 82°
2026-05-06 21:41 -23.47066 -46.60507 4406 ft 145 kts 73°
2026-05-06 21:42 -23.46784 -46.59467 4298 ft 144 kts 73°
2026-05-06 21:42 -23.46499 -46.58413 4187 ft 144 kts 73°
2026-05-06 21:42 -23.46216 -46.57365 4078 ft 144 kts 73°
2026-05-06 21:42 -23.45930 -46.56308 3891 ft 145 kts 73°
2026-05-06 21:43 -23.45647 -46.55259 3697 ft 144 kts 73°
2026-05-06 21:43 -23.45367 -46.54224 3509 ft 144 kts 73°
2026-05-06 21:43 -23.45084 -46.53173 3315 ft 145 kts 73°
2026-05-06 21:43 -23.44799 -46.52120 3127 ft 145 kts 73°
2026-05-06 21:44 -23.44517 -46.51072 3021 ft 145 kts 73°
2026-05-06 21:44 -23.44239 -46.50014 2778 ft 145 kts 74°
2026-05-06 21:44 -23.43954 -46.48970 2562 ft 143 kts 73°
2026-05-06 21:44 -23.43680 -46.47966 2475 ft 129 kts 73°
2026-05-06 21:45 -23.43473 -46.47192 2471 ft 81 kts 73°
2026-05-06 21:45 -23.43399 -46.46979 2472 ft 16 kts 51°
2026-05-06 21:45 -23.43320 -46.46874 2471 ft 20 kts 49°
2026-05-06 21:45 -23.43215 -46.46770 2472 ft 21 kts 41°
2026-05-06 21:46 -23.43092 -46.46707 2473 ft 20 kts 350°
2026-05-06 21:46 -23.42949 -46.46744 2473 ft 22 kts 346°
2026-05-06 21:46 -23.42850 -46.46830 2472 ft 17 kts 272°
2026-05-06 21:46 -23.42883 -46.46959 2472 ft 19 kts 253°
2026-05-06 21:47 -23.42921 -46.47101 2472 ft 20 kts 253°
2026-05-06 21:47 -23.42962 -46.47254 2472 ft 22 kts 253°
2026-05-06 21:47 -23.43008 -46.47421 2472 ft 24 kts 253°
2026-05-06 21:47 -23.43057 -46.47599 2472 ft 25 kts 253°
2026-05-06 21:48 -23.43108 -46.47788 2473 ft 27 kts 254°
2026-05-06 21:48 -23.43161 -46.47987 2473 ft 28 kts 253°
2026-05-06 21:48 -23.43217 -46.48194 2475 ft 29 kts 253°
2026-05-06 21:48 -23.43251 -46.48351 2475 ft 17 kts 276°
2026-05-06 21:49 -23.43152 -46.48411 2474 ft 18 kts 344°
2026-05-06 21:49 -23.43026 -46.48453 2474 ft 20 kts 345°
2026-05-06 21:49 -23.42913 -46.48413 2474 ft 15 kts 70°
2026-05-06 21:49 -23.42903 -46.48352 2474 ft 0 kts 88°